Regional Weather Roundup
Issued by NWS

Home | Current Version | Previous Version | Graphics & Text | Print | Product List | Glossary On
Versions: 1 2 3 4 5 6 7 8 9 10 11 12 13 14 15 16 17 18 19 20 21 22 23 24 25 26 27 28 29 30 31 32 33 34 35 36 37 38 39 40 41 42 43 44 45 46 47 48 49 50
463
ASUS45 KABQ 101401
RWRNM
NEW MEXICO REGIONAL WEATHER ROUNDUP
NATIONAL WEATHER SERVICE ALBUQUERQUE NM
700 AM MST SAT DEC 10 2016

NOTE: "FAIR" MEANS FEW OR NO CLOUDS BELOW 12,000 FEET AGL WITH NO
       SIGNIFICANT WEATHER OR OBSTRUCTIONS TO VISION.

      THIS PRODUCT IS RELEASED AS TWO VERSIONS.  ONE VERSION NEAR
      THE TOP OF THE HOUR CONTAINING PRELIMINARY DATA FROM ALBUQUERQUE
      AND OTHER STATIONS.  A FINAL VERSION WITH ADDITIONAL DATA IS
      ISSUED ABOUT 10 MINUTES AFTER THE HOUR.

NMZ501-503-504-510>518-101500-
NORTHWEST PLATEAU/NORTHCENTRAL MOUNTAINS

CITY           SKY/WX    TMP DP  RH WIND       PRES   REMARKS
FARMINGTON     FAIR      25  20  81 E9        30.21F WCI  15
LOS ALAMOS     FAIR      29  23  78 CALM      30.25S
SANTA FE       FAIR      23  20  88 N13       30.24R WCI  11
TAOS           FAIR      19   9  63 CALM      30.26S
ANGEL FIRE     FAIR      31  24  77 SE13      30.22S WCI  21

$$
NMZ402-403-502-505>509-101500-
WESTCENTRAL MOUNTAINS/SOUTHWEST MOUNTAINS

CITY           SKY/WX    TMP DP  RH WIND       PRES   REMARKS
GALLUP         FAIR      15  12  88 E3        30.22F
GRANTS         FAIR      19  17  91 CALM      30.27S
SILVER CITY    FAIR      26  24  93 N5        30.26S WCI  20

$$
NMZ407-409-411-412-101500-
SOUTHERN DESERTS

CITY           SKY/WX    TMP DP  RH WIND       PRES   REMARKS
DEMING         FAIR      26  24  92 N5        30.27S WCI  20
LAS CRUCES     FAIR      24  20  87 CALM      30.27F
HOLLOMAN AFB   FAIR      24  20  84 E3        30.31S
T OR C         FAIR      26  22  84 NW7       30.25S WCI  18

$$
NMZ519>523-101500-
CENTRAL VALLEYS/CENTRAL HIGHLANDS

CITY           SKY/WX    TMP DP  RH WIND       PRES   REMARKS
ALBUQUERQUE    FAIR      28  23  81 NE3       30.26S
DOUBLE EAGLE   PTCLDY    21  18  86 CALM      30.25F
CLINES CORNERS FAIR      26  22  84 NW14      30.22S WCI  14
BELEN          FAIR      22  20  90 CALM      30.27S
SOCORRO        FAIR      23  22  94 NW5       30.28R WCI  17

$$
NMZ524>526-539-540-101500-
SOUTHCENTRAL MOUNTAINS

CITY           SKY/WX    TMP DP  RH WIND       PRES   REMARKS
RUIDOSO        FAIR      37  18  44 W5        30.24F WCI  34

$$
NMZ527>531-101500-
NORTHEAST HIGHLANDS/NORTHEAST PLAINS

CITY           SKY/WX    TMP DP  RH WIND       PRES   REMARKS
LAS VEGAS      FAIR      35  17  47 SW6       30.14F WCI  30
RATON          FAIR      19  14  81 E7        30.09F WCI  10
CLAYTON        FAIR      49  27  42 W16       30.03S

$$
NMZ532>537-101500-
EASTCENTRAL PLAINS

CITY           SKY/WX    TMP DP  RH WIND       PRES   REMARKS
TUCUMCARI      FAIR      36  28  73 SW9       30.08S WCI  29
CANNON AFB     FOG       28  28 100 W6        30.14S VSB 1/2 WCI  22
CLOVIS AIRPORT FAIR      30  27  86 SW13      30.13F WCI  20

$$
NMZ028-029-538-101500-
SOUTHEAST PLAINS

CITY           SKY/WX    TMP DP  RH WIND       PRES   REMARKS
ROSWELL        FOG       31  29  92 CALM      30.20S VSB 1/4
ARTESIA        FOG       28  30 100 CALM      30.22S VSB<1/4
CARLSBAD       NOT AVBL


$$




USA.gov is the U.S. government's official web portal to all federal, state and local government web resources and services.